When you browse on this site, cookies collect data to enhance your experience and personalize the content and advertising you see.
Visit our Privacy Policy to learn more. By continuing to use the site, you agree to this use of cookies and data.
  • In Romania
  • List of Countries
  • For 7 days
  • Water Temperature
  • Weather Map
  • Weather Widgets
  • user-avatar
    Login

    Hourly Weather Invercargill

    Today, 3 June, Wednesday

    Time Temperature Precipitation Wind Pressure Humidity
    00:00 +9°C° 0 mm 3 mps 754 mmHg 86%
    01:00 +9°C° 0 mm 3 mps 753 mmHg 86%
    02:00 +9°C° 0 mm 3 mps 752 mmHg 86%
    03:00 +9°C° 0 mm 3 mps 752 mmHg 84%
    04:00 +9°C° 0 mm 3 mps 751 mmHg 83%
    05:00 +10°C° 0 mm 3 mps 751 mmHg 82%
    06:00 +10°C° 0 mm 3 mps 751 mmHg 81%
    07:00 +10°C° 0 mm 3 mps 751 mmHg 81%
    08:00 +11°C° 0 mm 3 mps 750 mmHg 81%
    09:00 +11°C° 0 mm 3 mps 750 mmHg 77%
    10:00 +12°C° 0 mm 3 mps 749 mmHg 74%
    11:00 +14°C° 0 mm 4 mps 749 mmHg 67%
    12:00 +14°C° 0 mm 3 mps 748 mmHg 67%
    13:00 +14°C° 0 mm 3 mps 748 mmHg 67%
    14:00 +14°C° 0 mm 3 mps 747 mmHg 67%
    15:00 +14°C° 0 mm 2 mps 747 mmHg 71%
    16:00 +13°C° 0 mm 2 mps 747 mmHg 75%
    17:00 +12°C° 0 mm 1 mps 747 mmHg 83%
    18:00 +12°C° 0 mm 1 mps 747 mmHg 85%
    19:00 +12°C° 0 mm 1 mps 747 mmHg 86%
    20:00 +12°C° 0 mm 1 mps 748 mmHg 88%
    21:00 +11°C° 0.4 mm 3 mps 748 mmHg 90%
    22:00 +10°C° 0.4 mm 4 mps 748 mmHg 93%
    23:00 +9°C° 0.4 mm 6 mps 748 mmHg 96%

    Tomorrow, 4 June, Thursday

    Time Temperature Precipitation Wind Pressure Humidity
    00:00 +9°C° 1.1 mm 6 mps 749 mmHg 95%
    01:00 +8°C° 1.1 mm 7 mps 749 mmHg 95%
    02:00 +8°C° 1.1 mm 7 mps 749 mmHg 94%
    03:00 +8°C° 0.6 mm 7 mps 750 mmHg 93%
    04:00 +6°C° 0.6 mm 7 mps 750 mmHg 92%
    05:00 +6°C° 0.6 mm 7 mps 751 mmHg 90%
    06:00 +7°C° 0.4 mm 6 mps 752 mmHg 89%
    07:00 +7°C° 0.4 mm 6 mps 753 mmHg 88%
    08:00 +5°C° 0.4 mm 6 mps 754 mmHg 88%
    09:00 +6°C° 0.1 mm 5 mps 754 mmHg 87%
    10:00 +7°C° 0.1 mm 5 mps 755 mmHg 86%
    11:00 +7°C° 0.1 mm 5 mps 756 mmHg 85%
    12:00 +7°C° 0.1 mm 5 mps 756 mmHg 83%
    13:00 +7°C° 0.1 mm 5 mps 756 mmHg 82%
    14:00 +7°C° 0.1 mm 5 mps 756 mmHg 80%
    15:00 +6°C° 0.1 mm 4 mps 756 mmHg 81%
    16:00 +5°C° 0.1 mm 4 mps 757 mmHg 82%
    17:00 +4°C° 0.1 mm 4 mps 757 mmHg 83%
    18:00 +4°C° 0 mm 3 mps 758 mmHg 82%
    19:00 +3°C° 0 mm 3 mps 758 mmHg 82%
    20:00 +4°C° 0 mm 2 mps 758 mmHg 81%
    21:00 +4°C° 0 mm 2 mps 758 mmHg 81%
    22:00 +4°C° 0 mm 2 mps 759 mmHg 80%
    23:00 +5°C° 0 mm 1 mps 759 mmHg 80%

    Day after tomorrow, 5 June, Friday

    Time Temperature Precipitation Wind Pressure Humidity
    00:00 +5°C° 0 mm 1 mps 759 mmHg 81%
    01:00 +4°C° 0 mm 1 mps 758 mmHg 83%
    02:00 +3°C° 0 mm 0 mps 758 mmHg 84%
    03:00 +4°C° 0 mm 1 mps 758 mmHg 85%
    04:00 +3°C° 0 mm 1 mps 758 mmHg 87%
    05:00 +2°C° 0 mm 2 mps 757 mmHg 88%
    06:00 +2°C° 0 mm 2 mps 757 mmHg 89%
    07:00 +1°C° 0 mm 2 mps 757 mmHg 89%
    08:00 +1°C° 0 mm 2 mps 757 mmHg 90%
    09:00 +3°C° 0 mm 2 mps 756 mmHg 84%
    10:00 +4°C° 0 mm 2 mps 756 mmHg 79%
    11:00 +5°C° 0 mm 2 mps 755 mmHg 73%
    12:00 +6°C° 0 mm 2 mps 755 mmHg 72%
    13:00 +7°C° 0 mm 2 mps 754 mmHg 70%
    14:00 +7°C° 0 mm 2 mps 753 mmHg 69%
    15:00 +7°C° 0 mm 3 mps 753 mmHg 72%
    16:00 +7°C° 0 mm 3 mps 752 mmHg 76%
    17:00 +7°C° 0 mm 3 mps 752 mmHg 79%
    18:00 +7°C° 0 mm 3 mps 752 mmHg 78%
    19:00 +6°C° 0 mm 4 mps 751 mmHg 78%
    20:00 +6°C° 0 mm 4 mps 751 mmHg 77%
    21:00 +5°C° 0.1 mm 4 mps 750 mmHg 77%
    22:00 +5°C° 0.1 mm 4 mps 750 mmHg 77%
    23:00 +5°C° 0.1 mm 4 mps 749 mmHg 77%

    6 June, Saturday

    Time Temperature Precipitation Wind Pressure Humidity
    00:00 +5°C° 0.5 mm 4 mps 749 mmHg 79%
    01:00 +6°C° 0.5 mm 4 mps 748 mmHg 81%
    02:00 +7°C° 0.5 mm 3 mps 748 mmHg 83%
    03:00 +5°C° 2.8 mm 4 mps 749 mmHg 87%
    04:00 +5°C° 2.8 mm 5 mps 749 mmHg 91%
    05:00 +3°C° 2.8 mm 5 mps 750 mmHg 94%
    06:00 +3°C° 0.7 mm 5 mps 751 mmHg 90%
    07:00 +3°C° 0.7 mm 5 mps 753 mmHg 87%
    08:00 +3°C° 0.7 mm 5 mps 754 mmHg 83%
    09:00 +3°C° 0.1 mm 5 mps 754 mmHg 79%
    10:00 +4°C° 0.1 mm 4 mps 755 mmHg 75%
    11:00 +5°C° 0.1 mm 4 mps 755 mmHg 70%
    12:00 +5°C° 0.1 mm 4 mps 755 mmHg 70%
    13:00 +5°C° 0.1 mm 4 mps 755 mmHg 70%
    14:00 +5°C° 0.1 mm 4 mps 755 mmHg 70%
    15:00 +4°C° 0 mm 4 mps 756 mmHg 73%
    16:00 +3°C° 0 mm 4 mps 756 mmHg 77%
    17:00 +1°C° 0 mm 4 mps 756 mmHg 81%
    18:00 +1°C° 0.1 mm 4 mps 756 mmHg 82%
    19:00 +1°C° 0.1 mm 4 mps 756 mmHg 84%
    20:00 +1°C° 0.1 mm 5 mps 756 mmHg 85%
    21:00 +1°C° 0.1 mm 5 mps 756 mmHg 86%
    22:00 0°C° 0.1 mm 4 mps 756 mmHg 86%
    23:00 0°C° 0.1 mm 4 mps 756 mmHg 87%

    7 June, Sunday

    Time Temperature Precipitation Wind Pressure Humidity
    00:00 0°C° 0.2 mm 5 mps 755 mmHg 86%
    01:00 0°C° 0.2 mm 5 mps 755 mmHg 84%
    02:00 +1°C° 0.2 mm 5 mps 754 mmHg 83%
    03:00 +1°C° 0.6 mm 5 mps 754 mmHg 85%
    04:00 +2°C° 0.6 mm 6 mps 754 mmHg 87%
    05:00 +2°C° 0.6 mm 6 mps 754 mmHg 89%
    06:00 +3°C° 0.9 mm 6 mps 754 mmHg 89%
    07:00 +3°C° 0.9 mm 6 mps 754 mmHg 89%
    08:00 +4°C° 0.9 mm 6 mps 754 mmHg 89%
    09:00 +5°C° 0.5 mm 6 mps 754 mmHg 86%
    10:00 +5°C° 0.5 mm 7 mps 754 mmHg 84%
    11:00 +6°C° 0.5 mm 7 mps 754 mmHg 81%
    12:00 +6°C° 0.4 mm 7 mps 753 mmHg 81%
    13:00 +6°C° 0.4 mm 7 mps 753 mmHg 82%
    14:00 +6°C° 0.4 mm 7 mps 753 mmHg 82%
    15:00 +6°C° 0.5 mm 7 mps 754 mmHg 82%
    16:00 +7°C° 0.5 mm 6 mps 754 mmHg 83%
    17:00 +7°C° 0.5 mm 6 mps 755 mmHg 84%
    18:00 +5°C° 0.3 mm 6 mps 755 mmHg 84%
    19:00 +5°C° 0.3 mm 6 mps 756 mmHg 84%
    20:00 +6°C° 0.3 mm 5 mps 756 mmHg 84%
    21:00 +6°C° 0.2 mm 5 mps 757 mmHg 84%
    22:00 +6°C° 0.2 mm 5 mps 757 mmHg 84%
    23:00 +6°C° 0.2 mm 5 mps 757 mmHg 84%

    8 June, Monday

    Time Temperature Precipitation Wind Pressure Humidity
    00:00 +6°C° 0.1 mm 5 mps 758 mmHg 84%
    01:00 +6°C° 0.1 mm 5 mps 758 mmHg 84%
    02:00 +5°C° 0.1 mm 5 mps 758 mmHg 84%
    03:00 +5°C° 0.2 mm 5 mps 758 mmHg 86%
    04:00 +5°C° 0.2 mm 5 mps 758 mmHg 87%
    05:00 +5°C° 0.2 mm 5 mps 758 mmHg 89%
    06:00 +5°C° 0.2 mm 5 mps 759 mmHg 88%
    07:00 +5°C° 0.2 mm 5 mps 759 mmHg 87%
    08:00 +5°C° 0.2 mm 5 mps 760 mmHg 87%
    09:00 +6°C° 0.1 mm 5 mps 760 mmHg 85%
    10:00 +7°C° 0.1 mm 5 mps 760 mmHg 83%
    11:00 +7°C° 0.1 mm 5 mps 760 mmHg 81%
    12:00 +7°C° 0.1 mm 5 mps 760 mmHg 80%
    13:00 +8°C° 0.1 mm 5 mps 760 mmHg 78%
    14:00 +8°C° 0.1 mm 5 mps 759 mmHg 77%
    15:00 +7°C° 0.2 mm 5 mps 760 mmHg 79%
    16:00 +7°C° 0.2 mm 5 mps 760 mmHg 82%
    17:00 +6°C° 0.2 mm 5 mps 760 mmHg 84%
    18:00 +6°C° 0.1 mm 5 mps 760 mmHg 84%
    19:00 +6°C° 0.1 mm 5 mps 761 mmHg 83%
    20:00 +6°C° 0.1 mm 5 mps 761 mmHg 83%
    21:00 +6°C° 0.1 mm 5 mps 761 mmHg 84%
    22:00 +6°C° 0.1 mm 5 mps 761 mmHg 85%
    23:00 +5°C° 0.1 mm 5 mps 761 mmHg 86%
    Show more